Location: Byszew
(52.1813°N, 19.2693°E)
Time: 00:30:35
(UTC+00:00)

Cosmos 2322 - Pass Details

Date: 03 March 2021
Orbit: 841 x 854 km, 71.0° (Epoch: 11 April)

Event Time Altitude Azimuth Distance (km) Brightness Sun altitude
Rises 19:46:08 0° 228° (SW) 3,415 7.0 -30.2°
Reaches altitude 10° 19:48:40 10° 234° (SW) 2,483 6.3 -30.6°
Maximum altitude 19:54:12 50° 309° (NW) 1,083 4.5 -31.3°
Drops below altitude 10° 19:59:46 10° 25° (NNE) 2,492 6.2 -32.0°
Sets 20:02:19 0° 31° (NNE) 3,430 6.9 -32.3°
